User: anonymous   Login
Location: Caltech
(34.1382°N, 118.1253°W)
Time: 23:51:33
(UTC-07:00)
Language:

Cosmos 1606 - Orbit

View from above orbital plane
View from above orbital plane
View from above satellite
View from above satellite

Ground track
Ground track

The orbit data is extracted from the following two-line orbital elements,

1 15369U 84111A   18116.61890764 +.00000553 +00000-0 +27039-4 0  9995
2 15369 082.5287 174.1516 0016138 249.0110 110.9396 15.16002686827943
Epoch (UTC): 26 April 2018 14:51:13
Eccentricity: 0.0016138
inclination: 82.5287°
perigee height: 507 km
apogee height: 529 km
right ascension of ascending node: 174.1516°
argument of perigee: 249.0110°
revolutions per day: 15.16002686
mean anomaly at epoch: 110.9396°
orbit number at epoch: 82794

The dashed part of the orbit path shows where the satellite is in the earth's shadow,  

DLR